CW3546 Weather Reports


time (UTC)temp
F
wind
direction
speed
knots
gust
knots
rain 1hr
in
rain 24hr
in
rain mn
in
humidity
%
barometer
mb
20260507203001 53 194 0.0 0.0 0.00 0.00 0.00 72 1015.0
20260507202604 53 194 0.0 0.9 0.00 0.00 0.00 71 1014.9
20260507202104 53 194 0.0 0.9 0.00 0.00 0.00 71 1014.9
20260507201600 53 194 0.0 0.9 0.00 0.00 0.00 71 1014.9
20260507201100 53 194 0.0 0.9 0.00 0.00 0.00 70 1014.8
20260507200601 53 194 0.0 0.0 0.00 0.00 0.00 71 1014.7
20260507200106 53 194 0.0 0.0 0.00 0.00 0.00 71 1014.7
20260507195600 53 194 0.0 0.0 0.00 0.00 0.00 71 1014.7
20260507195059 53 194 0.0 0.0 0.00 0.00 0.00 70 1014.6
20260507194558 53 194 0.0 0.0 0.00 0.00 0.00 70 1014.6
20260507194059 53 194 0.0 0.0 0.00 0.00 0.00 71 1014.6
20260507193559 53 194 0.0 0.0 0.00 0.00 0.00 71 1014.6
20260507193102 53 194 0.0 0.9 0.00 0.00 0.00 70 1014.5
20260507192558 54 194 0.0 0.9 0.00 0.00 0.00 70 1014.5
20260507192100 54 194 0.0 0.9 0.00 0.00 0.00 70 1014.4
20260507191559 54 223 0.0 0.0 0.00 0.00 0.00 71 1014.5
20260507191058 54 223 0.0 0.9 0.00 0.00 0.00 70 1014.4
20260507190557 54 223 0.0 2.6 0.00 0.00 0.00 69 1014.5
20260507190058 54 225 0.0 5.2 0.00 0.00 0.00 68 1014.5
20260507185557 55 296 0.9 5.2 0.00 0.00 0.00 66 1014.5
20260507185057 55 140 0.0 3.5 0.00 0.00 0.00 65 1014.4
20260507184558 55 124 0.0 0.9 0.00 0.00 0.00 64 1014.4
20260507184057 55 103 0.0 4.3 0.00 0.00 0.00 64 1014.4
20260507183558 56 91 0.9 4.3 0.00 0.00 0.00 63 1014.4
20260507183056 56 138 0.0 2.6 0.00 0.00 0.00 61 1014.4
20260507182557 56 298 0.0 2.6 0.00 0.00 0.00 61 1014.4
20260507182056 56 132 0.0 5.2 0.00 0.00 0.00 59 1014.4
20260507181556 57 328 0.0 5.2 0.00 0.00 0.00 59 1014.3
20260507181055 57 326 0.0 4.3 0.00 0.00 0.00 57 1014.3
20260507180556 57 302 0.0 0.9 0.00 0.00 0.00 58 1014.1
20260507180105 57 302 0.0 3.5 0.00 0.00 0.00 57 1014.1
20260507175555 57 266 0.0 4.3 0.00 0.00 0.00 55 1014.1
20260507175055 57 293 0.0 1.7 0.00 0.00 0.00 54 1014.0
20260507174625 58 136 0.0 1.7 0.00 0.00 0.00 53 1014.0
20260507174054 58 136 0.0 1.7 0.00 0.00 0.00 53 1014.0
20260507173554 58 137 0.0 0.9 0.00 0.00 0.00 52 1014.0
20260507173056 58 137 0.0 2.6 0.00 0.00 0.00 52 1014.0
20260507172555 58 140 0.0 0.9 0.00 0.00 0.00 51 1014.0
20260507172053 58 140 0.0 2.6 0.00 0.00 0.00 50 1014.0
20260507171609 58 139 0.0 2.6 0.00 0.00 0.00 50 1014.0
20260507171053 58 142 0.0 2.6 0.00 0.00 0.00 50 1014.0
20260507170553 58 179 0.0 0.9 0.00 0.00 0.00 49 1014.0
20260507170053 58 179 0.0 0.9 0.00 0.00 0.00 49 1014.1
20260507165555 58 179 0.0 0.9 0.00 0.00 0.00 48 1014.1
20260507165052 58 177 0.0 1.7 0.00 0.00 0.00 47 1014.1
20260507164554 59 158 0.0 1.7 0.00 0.00 0.00 48 1014.1
20260507164054 59 159 0.0 1.7 0.00 0.00 0.00 48 1014.1
20260507163552 59 158 0.0 2.6 0.00 0.00 0.00 47 1014.1
20260507163051 59 207 0.0 4.3 0.00 0.00 0.00 46 1014.1
20260507162551 59 124 0.0 4.3 0.00 0.00 0.00 46 1014.0
20260507162054 60 137 0.0 3.5 0.00 0.00 0.00 46 1014.1
20260507161553 60 109 0.0 3.5 0.00 0.00 0.00 45 1014.1
20260507161054 60 338 0.0 6.1 0.00 0.00 0.00 45 1014.1
20260507160550 60 142 0.9 6.1 0.00 0.00 0.00 46 1014.0
20260507160112 60 325 0.9 3.5 0.00 0.00 0.00 45 1014.1
20260507155553 61 115 0.9 4.3 0.00 0.00 0.00 44 1014.1
20260507155052 61 306 1.7 5.2 0.00 0.00 0.00 42 1014.0
20260507154548 61 118 0.0 5.2 0.00 0.00 0.00 46 1014.1
20260507154049 61 343 0.0 5.2 0.00 0.00 0.00 46 1014.1
20260507153551 61 108 0.9 4.3 0.00 0.00 0.00 46 1014.2
20260507153048 61 322 0.9 5.2 0.00 0.00 0.00 45 1014.2
20260507152558 61 344 0.9 3.5 0.00 0.00 0.00 47 1014.2
20260507152050 61 173 0.9 4.3 0.00 0.00 0.00 45 1014.2
20260507151550 61 199 0.0 8.7 0.00 0.00 0.00 46 1014.2
20260507151045 61 305 0.9 8.7 0.00 0.00 0.00 45 1014.3
20260507150545 61 145 0.0 7.0 0.00 0.00 0.00 47 1014.3
20260507150045 61 120 0.9 4.3 0.00 0.00 0.00 45 1014.4
20260507145547 61 318 0.0 4.3 0.00 0.00 0.00 47 1014.4
20260507145047 61 104 0.9 3.5 0.00 0.00 0.00 45 1014.4
20260507144544 61 161 1.7 10.4 0.00 0.00 0.00 47 1014.4
20260507144043 61 224 0.9 10.4 0.00 0.00 0.00 46 1014.5
20260507143542 61 36 0.0 4.3 0.00 0.00 0.00 48 1014.6
20260507143042 62 331 0.9 4.3 0.00 0.00 0.00 47 1014.6
20260507142541 62 194 0.0 4.3 0.00 0.00 0.00 46 1014.7
20260507142039 61 78 0.0 3.5 0.00 0.00 0.00 48 1014.7
20260507141540 61 188 0.9 9.6 0.00 0.00 0.00 48 1014.8
20260507141039 61 336 3.5 9.6 0.00 0.00 0.00 46 1014.9
20260507140538 61 355 0.0 4.3 0.00 0.00 0.00 49 1014.9
20260507140045 61 278 0.9 6.1 0.00 0.00 0.00 49 1015.0
20260507135539 60 132 0.9 6.1 0.00 0.00 0.00 48 1015.0
20260507135037 61 338 1.7 5.2 0.00 0.00 0.00 48 1015.0
20260507134536 60 211 0.0 6.1 0.00 0.00 0.00 50 1015.0
20260507134034 60 298 0.9 4.3 0.00 0.00 0.00 52 1015.1
20260507133534 60 132 0.0 4.3 0.00 0.00 0.00 51 1015.2
20260507133035 60 76 0.9 8.7 0.00 0.00 0.00 51 1015.2
20260507132533 60 341 3.5 8.7 0.00 0.00 0.00 48 1015.2
20260507132032 60 29 0.0 7.0 0.00 0.00 0.00 51 1015.2
20260507131603 60 245 0.9 7.0 0.00 0.00 0.00 50 1015.2
20260507131031 59 321 0.9 9.6 0.00 0.00 0.00 50 1015.3
20260507130530 59 311 2.6 9.6 0.00 0.00 0.00 49 1015.2
20260507130029 59 153 0.9 5.2 0.00 0.00 0.00 52 1015.3
20260507125529 59 148 0.9 7.0 0.00 0.00 0.00 53 1015.3
20260507125028 59 316 0.9 7.0 0.00 0.00 0.00 52 1015.3
20260507124531 59 163 0.9 5.2 0.00 0.00 0.00 52 1015.4
20260507124028 59 286 0.9 7.0 0.00 0.00 0.00 52 1015.4
20260507123528 59 116 0.9 7.0 0.00 0.00 0.00 52 1015.3
20260507123033 59 157 0.9 5.2 0.00 0.00 0.00 51 1015.3
20260507122528 59 11 0.9 4.3 0.00 0.00 0.00 52 1015.4
20260507122024 58 255 0.0 3.5 0.00 0.00 0.00 56 1015.4
20260507121524 58 155 0.9 3.5 0.00 0.00 0.00 57 1015.4
20260507121023 58 136 0.9 3.5 0.00 0.00 0.00 58 1015.4
20260507120523 58 160 0.9 3.5 0.00 0.00 0.00 59 1015.5
20260507120029 57 126 0.0 4.3 0.00 0.00 0.00 61 1015.5
20260507115518 57 142 0.0 4.3 0.00 0.00 0.00 62 1015.6
20260507115018 56 163 0.0 4.3 0.00 0.00 0.00 62 1015.6
20260507114517 56 112 1.7 4.3 0.00 0.00 0.00 62 1015.7
20260507114020 56 240 0.9 7.0 0.00 0.00 0.00 62 1015.7
20260507113516 56 156 0.9 7.0 0.00 0.00 0.00 62 1015.7
20260507113028 56 170 0.0 2.6 0.00 0.00 0.00 63 1015.8
20260507112516 55 142 0.9 2.6 0.00 0.00 0.00 64 1015.8
20260507112011 55 175 0.0 2.6 0.00 0.00 0.00 64 1015.8
20260507111509 54 75 0.0 4.3 0.00 0.00 0.00 65 1015.9
20260507111010 54 196 0.9 4.3 0.00 0.00 0.00 65 1015.9
20260507110508 54 111 0.0 3.5 0.00 0.00 0.00 67 1015.9
20260507110007 54 146 0.0 2.6 0.00 0.00 0.00 66 1016.0
20260507105505 54 107 0.0 3.5 0.00 0.00 0.00 66 1016.0
20260507105003 54 134 0.9 5.2 0.00 0.00 0.00 65 1016.0
20260507104504 54 173 0.0 5.2 0.00 0.00 0.00 67 1016.1
20260507104001 53 125 0.0 5.2 0.00 0.00 0.00 68 1016.2
20260507103600 53 235 0.0 6.1 0.00 0.00 0.00 68 1016.2
20260507103100 53 161 0.9 6.1 0.00 0.00 0.00 67 1016.2
20260507102559 53 161 0.0 4.3 0.00 0.00 0.00 68 1016.2
20260507102056 53 138 0.0 4.3 0.00 0.00 0.00 69 1016.1
20260507101557 52 153 0.0 4.3 0.00 0.00 0.00 69 1016.1
20260507101053 52 180 0.0 2.6 0.00 0.00 0.00 71 1016.1
20260507100551 52 157 0.0 3.5 0.00 0.00 0.00 70 1016.1
20260507100057 52 109 0.0 3.5 0.00 0.00 0.00 71 1016.1
20260507095549 51 252 0.0 3.5 0.00 0.00 0.00 71 1016.1
20260507095049 51 126 0.0 1.7 0.00 0.00 0.00 72 1016.1
20260507094547 51 119 0.0 1.7 0.00 0.00 0.00 73 1016.1
20260507094048 51 193 0.0 2.6 0.00 0.00 0.00 74 1016.2
20260507093544 50 182 0.0 2.6 0.00 0.00 0.00 73 1016.2
20260507093043 50 161 0.0 2.6 0.00 0.00 0.00 74 1016.1
20260507092542 50 106 0.0 2.6 0.00 0.00 0.00 74 1016.1
20260507092044 50 290 0.0 2.6 0.00 0.00 0.00 75 1016.1
20260507091542 49 227 0.0 1.7 0.00 0.00 0.00 75 1016.1
20260507091041 49 123 0.0 1.7 0.00 0.00 0.00 76 1016.1
20260507090536 49 119 0.0 5.2 0.00 0.00 0.00 77 1016.1
20260507090035 49 112 0.0 5.2 0.00 0.00 0.00 76 1016.2
20260507085534 49 259 0.0 3.5 0.00 0.00 0.00 77 1016.1
20260507085033 49 169 0.0 1.7 0.00 0.00 0.00 78 1016.1
20260507084547 48 165 0.0 1.7 0.00 0.00 0.00 78 1016.2
20260507084031 48 125 0.0 3.5 0.00 0.00 0.00 78 1016.2
20260507083530 48 132 0.0 1.7 0.00 0.00 0.00 79 1016.2
20260507083029 48 132 0.0 2.6 0.00 0.00 0.00 79 1016.2
20260507082528 47 136 0.0 3.5 0.00 0.00 0.00 79 1016.1
20260507082026 47 147 0.0 3.5 0.00 0.00 0.00 79 1016.1
20260507081525 47 142 0.0 0.9 0.00 0.00 0.00 79 1016.1
20260507081025 47 139 0.0 2.6 0.00 0.00 0.00 80 1016.1
20260507080523 47 128 0.0 2.6 0.00 0.00 0.00 80 1016.1
20260507080021 47 127 0.0 2.6 0.00 0.00 0.00 80 1016.1
20260507075520 46 142 0.0 1.7 0.00 0.00 0.00 80 1016.1
20260507075022 46 120 0.0 1.7 0.00 0.00 0.00 81 1016.1
20260507074518 46 157 0.0 1.7 0.00 0.00 0.00 81 1016.1
20260507074018 46 165 0.0 1.7 0.00 0.00 0.00 81 1016.1
20260507073517 46 165 0.0 2.6 0.00 0.00 0.00 81 1016.0
20260507073015 46 162 0.0 2.6 0.00 0.00 0.00 81 1016.0
20260507072515 46 173 0.0 2.6 0.00 0.00 0.00 81 1016.0
20260507072015 46 140 0.0 2.6 0.00 0.00 0.00 82 1016.0
20260507071517 45 128 0.0 1.7 0.00 0.00 0.00 82 1015.9
20260507071014 45 121 0.0 5.2 0.00 0.00 0.00 82 1015.9
20260507070513 45 121 0.0 5.2 0.00 0.00 0.00 82 1015.9
20260507070019 45 134 0.0 3.5 0.00 0.00 0.00 83 1015.9
20260507065512 45 168 0.0 3.5 0.00 0.00 0.00 83 1015.8
20260507065013 45 128 0.0 2.6 0.00 0.00 0.00 83 1015.8
20260507064512 45 159 0.9 4.3 0.00 0.00 0.00 83 1015.8
20260507064011 45 128 0.0 3.5 0.00 0.00 0.00 83 1015.8
20260507063511 45 144 0.0 1.7 0.00 0.00 0.00 83 1015.8
20260507063013 45 157 0.0 0.9 0.00 0.00 0.00 84 1015.8
20260507062509 45 155 0.0 1.7 0.00 0.00 0.00 84 1015.8
20260507062007 45 126 0.0 1.7 0.00 0.00 0.00 84 1015.8
20260507061506 44 121 0.0 1.7 0.00 0.00 0.00 84 1015.8
20260507061007 44 307 0.0 2.6 0.00 0.00 0.00 84 1015.8
20260507060504 44 142 0.0 2.6 0.00 0.00 0.00 84 1015.7
20260507060005 44 142 0.0 2.6 0.00 0.00 0.00 84 1015.7
20260507055503 44 155 0.0 1.7 0.00 0.00 0.00 84 1015.7
20260507055004 44 161 0.0 1.7 0.00 0.00 0.00 84 1015.7
20260507054503 44 131 0.0 1.7 0.00 0.00 0.00 84 1015.6
20260507054002 44 130 0.0 1.7 0.00 0.00 0.00 84 1015.6
20260507053501 44 129 0.0 2.6 0.00 0.00 0.00 84 1015.6
20260507053101 44 129 0.0 2.6 0.00 0.00 0.00 84 1015.6
20260507052600 44 143 0.0 1.7 0.00 0.00 0.00 84 1015.5
20260507052059 44 136 0.0 2.6 0.00 0.00 0.00 84 1015.5
20260507051607 44 136 0.0 2.6 0.00 0.00 0.00 84 1015.5
20260507051057 43 123 0.0 2.6 0.00 0.00 0.00 84 1015.5
20260507050557 43 145 0.0 5.2 0.00 0.00 0.00 84 1015.6
20260507050109 43 132 0.0 5.2 0.00 0.00 0.00 84 1015.5
20260507045556 43 127 0.0 5.2 0.00 0.00 0.00 85 1015.6
20260507045056 43 116 0.0 2.6 0.00 0.00 0.00 85 1015.6
20260507044558 43 145 0.0 1.7 0.00 0.00 0.00 85 1015.5
20260507044059 43 161 0.0 0.9 0.00 0.00 0.00 85 1015.6
20260507043555 43 161 0.0 0.9 0.00 0.00 0.00 85 1015.6
20260507043055 42 159 0.0 0.9 0.00 0.00 0.00 85 1015.6
20260507042555 42 159 0.0 0.9 0.00 0.00 0.00 85 1015.5
20260507042055 42 159 0.0 0.0 0.00 0.00 0.00 85 1015.6
20260507041554 42 159 0.0 0.0 0.00 0.00 0.00 85 1015.5
20260507041157 42 159 0.0 0.0 0.00 0.00 0.00 85 1015.5
20260507040556 42 159 0.0 0.0 0.00 0.00 0.00 85 1015.5
20260507040058 42 159 0.0 1.7 0.00 0.00 0.00 85 1015.5
20260507035556 42 161 0.0 0.0 0.00 0.00 0.00 85 1015.6
20260507035053 42 161 0.0 2.6 0.00 0.00 0.00 85 1015.6
20260507034558 42 161 0.0 3.5 0.00 0.00 0.00 85 1015.6
20260507034052 42 150 0.0 0.0 0.00 0.00 0.00 85 1015.6
20260507033552 42 150 0.0 0.0 0.00 0.00 0.00 84 1015.6
20260507033053 42 148 0.0 0.0 0.00 0.00 0.00 84 1015.5
20260507032552 42 148 0.0 0.0 0.00 0.00 0.00 84 1015.6
20260507032052 42 148 0.0 0.0 0.00 0.00 0.00 84 1015.5
20260507031553 42 148 0.0 0.0 0.00 0.00 0.00 83 1015.6
20260507031049 42 148 0.0 0.0 0.00 0.00 0.00 83 1015.6
20260507030548 43 148 0.0 0.0 0.00 0.00 0.00 83 1015.6
20260507030049 43 148 0.0 0.0 0.00 0.00 0.00 82 1015.7
20260507025549 43 148 0.0 0.0 0.00 0.00 0.00 82 1015.7
20260507025047 43 148 0.0 1.7 0.00 0.00 0.00 82 1015.6
20260507024548 43 148 0.0 1.7 0.00 0.00 0.00 82 1015.5
20260507024049 43 161 0.0 2.6 0.00 0.00 0.00 82 1015.5
20260507023550 43 161 0.0 2.6 0.00 0.00 0.00 82 1015.4
20260507023046 43 161 0.0 2.6 0.00 0.00 0.00 81 1015.6
20260507022545 43 133 0.0 2.6 0.00 0.00 0.00 81 1015.5
20260507022046 43 154 0.0 2.6 0.00 0.00 0.00 81 1015.4
20260507021554 43 203 0.0 0.9 0.00 0.00 0.00 81 1015.4
20260507021043 43 203 0.0 0.9 0.00 0.00 0.00 81 1015.5
20260507020544 43 203 0.0 1.7 0.00 0.00 0.00 81 1015.4
20260507020044 43 103 0.0 1.7 0.00 0.00 0.00 81 1015.5
20260507015542 44 101 0.0 0.9 0.00 0.00 0.00 81 1015.5
20260507015042 44 100 0.0 0.9 0.00 0.00 0.00 80 1015.6
20260507014542 44 97 0.0 0.9 0.00 0.00 0.00 80 1015.7
20260507014043 44 95 0.0 1.7 0.00 0.00 0.00 80 1015.7
20260507013541 44 57 0.0 3.5 0.00 0.00 0.00 80 1015.7
20260507013041 44 189 0.0 3.5 0.00 0.00 0.00 79 1015.7
20260507012543 44 159 0.0 2.6 0.00 0.00 0.00 79 1015.8
20260507012039 44 146 0.0 1.7 0.00 0.00 0.00 79 1015.8
20260507011540 44 146 0.0 1.7 0.00 0.00 0.00 79 1015.8
20260507011038 44 175 0.0 1.7 0.00 0.00 0.00 79 1015.8
20260507010538 44 175 0.0 1.7 0.00 0.00 0.00 79 1015.8
20260507010043 44 175 0.0 0.9 0.00 0.00 0.00 79 1015.8
20260507005538 44 175 0.0 0.9 0.00 0.00 0.00 79 1015.8
20260507005041 44 175 0.0 3.5 0.00 0.00 0.00 79 1015.8
20260507004537 44 176 0.0 3.5 0.00 0.00 0.00 79 1015.8
20260507004037 44 246 0.0 3.5 0.00 0.00 0.00 79 1015.9
20260507003537 44 170 0.0 3.5 0.00 0.00 0.00 79 1015.9
20260507003036 44 179 0.0 2.6 0.00 0.00 0.00 80 1015.9
20260507002536 44 167 0.0 2.6 0.00 0.00 0.00 79 1015.9
20260507002035 44 148 0.0 1.7 0.00 0.00 0.00 80 1015.9
20260507001535 44 144 0.0 1.7 0.00 0.00 0.00 80 1016.0
20260507001034 44 187 0.0 2.6 0.00 0.00 0.00 80 1016.0
20260507000536 44 238 0.0 2.6 0.00 0.00 0.00 79 1015.9
20260507000036 44 132 0.0 1.7 0.00 0.00 0.00 79 1015.8
20260506235532 45 131 0.0 1.7 0.00 0.00 0.00 79 1015.8
20260506235031 45 157 0.0 3.5 0.00 0.00 0.00 79 1015.8
20260506234534 45 131 0.0 3.5 0.00 0.00 0.00 78 1015.9
20260506234031 45 205 0.0 1.7 0.00 0.00 0.00 78 1016.0
20260506233530 45 202 0.0 3.5 0.00 0.00 0.00 78 1016.0
20260506233030 45 161 0.0 3.5 0.00 0.00 0.00 78 1016.0
20260506232530 45 137 0.0 0.0 0.00 0.00 0.00 78 1016.0
20260506232028 46 137 0.0 0.9 0.00 0.00 0.00 77 1015.9
20260506231528 46 137 0.0 1.7 0.00 0.00 0.00 77 1015.8
20260506231026 46 136 0.0 1.7 0.00 0.00 0.00 77 1015.8
20260506230527 46 120 0.0 1.7 0.00 0.00 0.00 76 1015.8
20260506230026 46 140 0.0 1.7 0.00 0.00 0.00 76 1015.8
20260506225524 46 156 0.0 4.3 0.00 0.00 0.00 76 1015.8
20260506225024 46 161 0.9 4.3 0.00 0.00 0.00 76 1015.7
20260506224526 46 176 0.0 4.3 0.00 0.00 0.00 76 1015.7
20260506224025 46 122 0.0 3.5 0.00 0.00 0.00 76 1015.7
20260506223524 46 21 0.0 3.5 0.00 0.00 0.00 76 1015.7
20260506223024 46 326 0.0 3.5 0.00 0.00 0.00 76 1015.7
20260506222524 46 164 0.0 4.3 0.00 0.00 0.00 75 1015.7
20260506222024 46 129 0.0 4.3 0.00 0.00 0.00 76 1015.7
20260506221523 46 185 0.0 2.6 0.00 0.00 0.00 76 1015.6
20260506221022 46 153 0.0 1.7 0.00 0.00 0.00 76 1015.6
20260506220522 46 132 0.0 2.6 0.00 0.00 0.00 76 1015.6
20260506220029 46 131 0.0 2.6 0.00 0.00 0.00 76 1015.6
20260506215522 46 104 0.0 0.9 0.00 0.00 0.00 76 1015.6
20260506215022 46 90 0.0 0.9 0.00 0.00 0.00 76 1015.6
20260506214522 46 89 0.0 2.6 0.00 0.00 0.00 76 1015.6
20260506214022 46 89 0.0 2.6 0.00 0.00 0.00 76 1015.5
20260506213522 46 105 0.0 0.9 0.00 0.00 0.00 76 1015.5
20260506213028 46 101 0.0 1.7 0.00 0.00 0.00 76 1015.4
20260506212525 46 101 0.0 1.7 0.00 0.00 0.00 75 1015.5
20260506212025 46 102 0.0 0.9 0.00 0.00 0.00 75 1015.5
20260506211524 46 102 0.0 0.9 0.00 0.00 0.00 74 1015.4
20260506211021 46 102 0.0 1.7 0.00 0.00 0.00 74 1015.4
20260506210520 46 102 0.0 2.6 0.00 0.00 0.00 74 1015.4
20260506210025 46 124 0.0 1.7 0.00 0.00 0.00 74 1015.4
20260506205521 46 125 0.0 1.7 0.00 0.00 0.00 73 1015.4
20260506205022 47 128 0.0 0.0 0.00 0.00 0.00 73 1015.4
20260506204523 47 131 0.0 0.0 0.00 0.00 0.00 72 1015.3
20260506204019 47 131 0.0 0.0 0.00 0.00 0.00 71 1015.3
20260506203522 47 131 0.0 0.9 0.00 0.00 0.00 71 1015.3